Location: Unspecified
(0.0000°N, 0.0000°E)
Time: 01:44:10
(UTC+02:00)

AO-40 - Visible Passes

Search period start: 04 June 2015 00:00
Search period end: 14 June 2015 00:00
Orbit: 1042 x 58779 km, 9.2° (Epoch: 19 May)

Date Brightness Start Highest point End Pass type
(mag) Time Alt. Az. Time Alt. Az. Time Alt. Az.
04 Jun ? 06:47:18 18° WSW 07:14:49 85° SSE 17:28:00 10° W visible
05 Jun ? 01:54:07 11° ESE 01:54:07 11° ESE 20:37:01 10° E visible
05 Jun ? 01:54:05 11° ESE 01:54:05 11° ESE 01:54:41 10° ESE visible
05 Jun ? 05:48:12 10° E 20:29:08 90° S 15:23:46 10° E visible
08 Jun ? 06:21:16 27° WSW 06:43:04 84° SSE 17:19:04 10° W visible
09 Jun ? 05:41:40 10° E 20:00:59 89° N 14:55:17 10° E visible
12 Jun ? 05:55:17 36° WSW 06:12:10 83° SSE 17:10:11 10° W visible
